CZ-6A DEB, 56619

Orbit data source: Space-Track

CZ-6A DEB, 56619 is space debris in SSO originally from a launch on Fri, 11 Nov 2022 UTC launched from the Taiyaun Space Center, China (TSC). Debris objects in space refer to the collection of defunct objects orbiting the Earth. Examples of debris include non-operational satellites, rocket bodies, and fragments generated from explosions, collisions, or faulty payload assembly.

Loading next visibility...
Identifier
56619, 2022-151AET
Orbit
SSO
Country
Flag of CNCN / PRC
Related business
Manufacturer
SAST
Mission
Spacecraft
Bus & Motor
Unknown
Mass
Unknown
Launch date (UTC)
2022-11-11 (3 years ago)
Launch vehicle
Unknown
Launch site
Taiyaun Space Center, China (TSC)
Object type
Payload
Rocket body
Debris
Shape & HBR
Unknown shape, 0.1 m
Radar Cross Section
Small (<0.1 m²)

Expand to show TLE details & history
Last TLE update: 1 day ago

TLE from 1 day ago
0 CZ-6A DEB
1 56619U 22151AET 25348.26662215  .00000484  00000-0  19726-3 0  9994
2 56619  98.5629 347.8312 0074340 227.6757 131.8112 14.30376110138117
Epoch: 2025-12-14T06:23Z
TLE epoch observation values (Epoch: 2025-12-14T06:23:56.153Z)
Latitude
-0.00005°
Longitude
168.66524°
Altitude
829.161 km
Speed
7.42 km/s
True Right ascension
23h 11m 19s
True Declination
0° 00' 00"
Sunlit
Object was in daylight at epoch
Visualization orbit readout
Latitude
Unknown
Longitude
Unknown
Altitude
Unknown
Speed
Unknown
Apparent Right ascension
Unknown
Apparent Declination
Unknown
Sunlit
N/A
Visualization observer readout
Local Sidereal Time
15:06:13
Azimuth
Unknown
Elevation
Unknown
Doppler factor
Unknown
Orbital elements
Apogee altitude
840.882 km
Perigee altitude
734.341 km
Semi-major axis
7,165.748 km
Eccentricity
0.00743
Inclination
98.5629°
RAAN
347.8312°
Arg. of periapsis
227.6757°
True anomaly
132.44222°
Mean anomaly
131.8112°
Eccentric anomaly
132.1271°
Mean motion
3.57809 °/min
Orbital period
100.61 mins
BSTAR
0.00019726
Loading maneuver chart data...
Computing Atmospheric mass density...
Loading historical data...
Loading historical data...
Loading historical data...
Loading historical data...
Loading historical data...
Loading historical data...
Loading historical data...

Documentation

Showing up to 5 results
|